WB5MTX Weather Reports


time (UTC)temp
F
wind
direction
speed
knots
gust
knots
rain 1hr
in
rain 24hr
in
rain mn
in
humidity
%
barometer
mb
20260906223102 99 0 0.0 8.7 0.00 0.00 0.00 39 1010.6
20260906221559 99 85 0.9 7.0 0.00 0.00 0.00 38 1010.9
20260906214600 99 93 0.9 6.1 0.00 0.00 0.00 39 1011.1
20260906213057 99 107 0.0 8.7 0.00 0.00 0.00 39 1011.3
20260906211601 98 110 0.0 8.7 0.00 0.00 0.00 40 1011.4
20260906210122 99 119 0.9 7.0 0.00 0.00 0.00 40 1011.5
20260906204603 100 0 0.0 6.1 0.00 0.00 0.00 40 1011.6
20260906203102 99 0 0.0 7.0 0.00 0.00 0.00 40 1011.8
20260906201604 100 96 0.9 7.0 0.00 0.00 0.00 39 1012.0
20260906200142 99 89 1.7 9.6 0.00 0.00 0.00 41 1012.0
20260906194606 99 0 0.0 9.6 0.00 0.00 0.00 40 1012.1
20260906193101 99 0 0.0 6.1 0.00 0.00 0.00 43 1012.3
20260906191604 98 119 0.0 6.1 0.00 0.00 0.00 42 1012.8
20260906190109 97 0 1.7 9.6 0.00 0.00 0.00 44 1012.8
20260906184630 97 0 0.9 7.0 0.00 0.00 0.00 44 1013.0
20260906183102 97 146 0.0 4.3 0.00 0.00 0.00 44 1013.1
20260906181559 96 114 0.9 9.6 0.00 0.00 0.00 46 1013.3
20260906174601 95 119 1.7 8.7 0.00 0.00 0.00 47 1013.7
20260906173106 95 114 1.7 8.7 0.00 0.00 0.00 48 1014.0
20260906171605 95 119 0.0 8.7 0.00 0.00 0.00 48 1014.2
20260906170112 94 117 0.0 7.0 0.00 0.00 0.00 49 1014.5
20260906164604 94 0 0.9 5.2 0.00 0.00 0.00 51 1014.6
20260906163105 94 124 0.0 5.2 0.00 0.00 0.00 54 1014.6
20260906161606 92 0 0.0 6.1 0.00 0.00 0.00 56 1014.5
20260906160104 92 0 0.9 6.1 0.00 0.00 0.00 57 1014.5
20260906154601 90 130 0.0 3.5 0.00 0.00 0.00 60 1014.6
20260906153058 89 0 0.0 3.5 0.00 0.00 0.00 64 1014.5
20260906151602 87 127 0.9 4.3 0.00 0.00 0.00 66 1014.4
20260906150105 86 0 0.0 5.2 0.00 0.00 0.00 68 1014.3
20260906144602 85 0 0.0 0.0 0.00 0.00 0.00 70 1014.2
20260906143104 84 0 0.0 2.6 0.00 0.00 0.00 71 1014.3
20260906141611 84 0 0.0 0.0 0.00 0.00 0.00 72 1014.4
20260906140108 83 0 0.0 1.7 0.00 0.00 0.00 74 1014.4
20260906134617 82 0 0.0 0.0 0.00 0.00 0.00 75 1014.1
20260906133106 80 0 0.0 1.7 0.00 0.00 0.00 78 1014.1
20260906131602 78 0 0.0 0.0 0.00 0.00 0.00 81 1014.1
20260906130147 77 0 0.0 0.0 0.00 0.00 0.00 82 1014.0
20260906124609 77 0 0.0 0.0 0.00 0.00 0.00 82 1013.9
20260906123103 76 0 0.0 0.0 0.00 0.00 0.00 83 1013.9
20260906121610 76 0 0.0 0.0 0.00 0.00 0.00 84 1013.6
20260906120110 76 0 0.0 0.0 0.00 0.00 0.00 83 1013.4
20260906114607 76 0 0.0 0.0 0.00 0.00 0.00 83 1013.3
20260906113108 76 0 0.0 0.0 0.00 0.00 0.00 83 1013.3
20260906111602 77 0 0.0 0.0 0.00 0.00 0.00 83 1013.2
20260906110056 77 0 0.0 0.0 0.00 0.00 0.00 82 1013.0
20260906104558 77 0 0.0 0.0 0.00 0.00 0.00 81 1012.9
20260906103105 77 0 0.0 0.0 0.00 0.00 0.00 81 1012.8
20260906101604 77 0 0.0 0.0 0.00 0.00 0.00 80 1012.9
20260906094602 78 0 0.0 0.0 0.00 0.00 0.00 79 1012.4
20260906093059 78 0 0.0 0.0 0.00 0.00 0.00 78 1012.3
20260906091601 78 0 0.0 0.0 0.00 0.00 0.00 78 1012.4
20260906084603 79 0 0.0 0.0 0.00 0.00 0.00 77 1012.2
20260906083104 80 0 0.0 0.0 0.00 0.00 0.00 76 1012.2
20260906081600 80 0 0.0 0.0 0.00 0.00 0.00 76 1012.2
20260906080103 80 0 0.0 0.0 0.00 0.00 0.00 75 1012.5
20260906074559 80 0 0.0 0.0 0.00 0.00 0.00 75 1012.6
20260906073101 81 0 0.0 3.5 0.00 0.00 0.00 74 1012.5
20260906071603 81 0 0.0 2.6 0.00 0.00 0.00 74 1012.5
20260906070103 81 0 0.0 0.0 0.00 0.00 0.00 74 1012.5
20260906064600 81 178 0.0 0.9 0.00 0.00 0.00 74 1012.7
20260906063101 82 0 0.0 0.0 0.00 0.00 0.00 73 1012.8
20260906061623 82 0 0.0 0.0 0.00 0.00 0.00 72 1012.9
20260906060121 82 0 0.0 0.0 0.00 0.00 0.00 71 1013.0
20260906054600 83 0 0.0 0.0 0.00 0.00 0.00 70 1012.9
20260906053102 83 0 0.0 0.0 0.00 0.00 0.00 70 1012.8
20260906051608 83 0 0.0 0.9 0.00 0.00 0.00 70 1013.0
20260906050107 84 0 0.0 2.6 0.00 0.00 0.00 69 1012.9
20260906044600 84 170 0.0 0.9 0.00 0.00 0.00 69 1012.8
20260906043105 84 0 0.0 0.0 0.00 0.00 0.00 69 1012.6
20260906041604 85 0 0.0 0.0 0.00 0.00 0.00 69 1012.6
20260906040101 85 0 0.0 0.0 0.00 0.00 0.00 67 1012.5
20260906034605 86 0 0.0 1.7 0.00 0.00 0.00 67 1012.5
20260906033101 86 0 0.0 3.5 0.00 0.00 0.00 65 1012.8
20260906031603 87 0 0.0 3.5 0.00 0.00 0.00 64 1012.9
20260906030109 87 0 0.0 5.2 0.00 0.00 0.00 63 1012.7
20260906024603 88 0 0.9 6.1 0.00 0.00 0.00 60 1012.5
20260906023110 88 102 0.0 7.8 0.00 0.00 0.00 58 1012.2
20260906021608 89 111 0.9 8.7 0.00 0.00 0.00 56 1012.0
20260906020105 90 81 0.9 8.7 0.00 0.00 0.00 54 1011.8
20260906014607 91 102 1.7 12.2 0.00 0.00 0.00 51 1011.6
20260906013103 93 0 0.0 6.1 0.00 0.00 0.00 49 1011.1
20260906011606 93 0 0.9 6.1 0.00 0.00 0.00 46 1010.9
20260906010108 94 0 0.0 5.2 0.00 0.00 0.00 45 1010.8
20260906004605 95 0 0.0 3.5 0.00 0.00 0.00 42 1010.8
20260906003059 96 96 0.0 2.6 0.00 0.00 0.00 40 1010.7
20260906001605 97 0 0.0 1.7 0.00 0.00 0.00 40 1010.6
20260906000106 97 0 0.0 5.2 0.00 0.00 0.00 39 1010.6
20260905234602 97 0 0.0 6.1 0.00 0.00 0.00 38 1010.6
20260905233116 98 103 0.9 7.8 0.00 0.00 0.00 39 1010.4
20260905231557 98 0 0.0 7.0 0.00 0.00 0.00 38 1010.5
20260905230103 100 0 0.0 5.2 0.00 0.00 0.00 37 1010.4
20260905224604 100 0 0.0 3.5 0.00 0.00 0.00 37 1010.4